Terminal Aerodrome Forecast
Issued by NWS

Home | Current Version | Previous Version | Text Only | Print | Product List | Glossary On
Versions: 1 2 3 4 5 6 7 8 9 10 11 12 13 14 15 16 17 18 19 20 21 22 23 24 25
278
FTUS41 KBUF 092104 AAA
TAFIAG
TAF AMD
KIAG 092104Z 0921/1018 29014KT P6SM BKN060
     FM100200 29007KT P6SM BKN060
     FM100900 25005KT 5SM -SN BKN045
     FM101200 25007KT P6SM BKN035
     FM101500 26010G20KT P6SM BKN035
     FM101700 26012G18KT P6SM SCT250=

USA.gov is the U.S. government's official web portal to all federal, state and local government web resources and services.